Location: LDNL
(36.4545°S, 141.6685°E)
Time: 18:40:07
(UTC+10:00)

A-11 Canister half - Pass Details

Date: 30 January 2022
Orbit: 1527 x 1682 km, 47.3° (Epoch: 20 May)

Event Time Altitude Azimuth Distance (km) Brightness Sun altitude
Rises 04:51:42 0° 239° (WSW) 4,908 11.5 -20.3°
Reaches altitude 10° 04:54:56 10° 236° (SW) 3,902 11.0 -19.9°
Maximum altitude 05:04:53 69° 153° (SSE) 1,702 9.4 -18.4°
Drops below altitude 10° 05:14:27 10° 69° (ENE) 3,761 11.4 -16.9°
Sets 05:17:30 0° 66° (ENE) 4,723 12.0 -16.4°
